Погода в Новоселовке

Украина / Одесская область     46°59′32″N   29°54′42″E
темп.,
°C
ветер,
м/с
пор.,
м/с
влажн.,
%
обл.,
%
осадки,
мм/ч
давл.,
гПа
погр.,
м
3 августа, вт
вт300:00+21всв228627 0.0 101035
03:00+21ссз35844 0.0 1012103
06:00+19с49875 0.0 1013247
09:00+23ссв576450 0.0 1014550
12:00+25ссв45515 0.1 10151043
15:00+27с44438 0.1 10141708
18:00+27ссз3441100 0.0 10152020
21:00+23с355151 0.0 101581
4 августа, ср
ср400:00+20ссв33560 0.0 101744
03:00+19ссв35610 0.0 101769
06:00+18св22650 0.0 101718
09:00+24в3351100 0.0 1018433
12:00+27юв3240100 0.0 10181442
15:00+29ююв233513 0.0 10162120
18:00+30в133363 0.0 10152322
21:00+24юз4855100 0.1 1016207
5 августа, чт
чт500:00+20з226782 0.1 101619
03:00+21юв1164100 0.1 101527
06:00+20ююв246821 0.4 101456
09:00+25ююв574644 0.6 1014552
12:00+31ю783363 0.0 10121580
15:00+32ююв88320 0.0 10111836
18:00+30ююв89405 0.0 10091227
21:00+24ююв8147596 0.0 1008513
6 августа, пт
пт600:00+23ю4108822 0.0 1009405
03:00+22вюв51192100 0.0 1007293
06:00+21юв4108836 0.0 1006294
09:00+27ююв8125398 0.1 1005891
12:00+31ю7935100 0.4 10051535
15:00+33ююв6730100 0.4 10042107
18:00+28ююв474865 1.0 1004569
21:00+24в466938 3.9 100492
7 августа, сб
сб700:00+21с348365 1.3 100564
03:00+20с368764 1.6 1005121
06:00+19сз37908 0.0 1006176
09:00+23ссз6873100 0.0 1007542
12:00+25сз666191 0.0 1008888
15:00+27ссз775280 0.0 10081301
18:00+25сз895817 0.0 10101016
21:00+21ссз610730 0.0 1011444